Weather in Novobobruysk

Russia / Kaliningrad Oblast     54°30′31″N   21°20′06″E
temp.,
°C
wind,
m/s
gust,
m/s
humid.,
%
clouds,
%
prec.,
mm/h
press.,
hPa
HPBL,
m
15 april, thu
thu1523:00+5nne5972100 0.1 1022957
02:00+3n61497100 0.6 1021693
05:00+2nne61497100 1.0 1020679
08:00+4nne61393100 1.7 1020817
11:00+5ne61281100 1.0 1020861
14:00+7ne51173100 1.1 1020960
17:00+8ene51071100 0.0 10201077
20:00+6ene51176100 0.0 1021759
16 april, fri
fri1623:00+6ne4969100 0.0 1020780
02:00+5nne5981100 0.0 1019828
05:00+4n51087100 0.1 1018610
08:00+4n5984100 0.1 1018539
11:00+5n4989100 0.4 1018511
14:00+6nne4893100 1.3 1018543
17:00+8ne4791100 0.0 1018604
20:00+7nne3893100 0.1 1020359
17 april, sat
sat1723:00+7nne4995100 0.1 1020318
02:00+7ne31096100 0.1 1020345
05:00+7ne4996100 0.3 1020446
08:00+8ne3897100 2.1 1020439
11:00+10e3687100 0.1 1021781
14:00+11ene3785100 0.1 1022831
17:00+11e378099 0.1 1022500
20:00+8ene3792100 0.1 1022144
18 april, sun
sun1823:00+7ene369592 0.0 1023118
02:00+6ene3897100 0.0 1023187
05:00+6ne379691 0.0 1022164
08:00+8nne3893100 0.0 1022298
11:00+13e4874100 0.0 1022909
14:00+15e576793 0.6 10211327
17:00+15ene486973 0.9 1021885
20:00+10e358486 1.2 102272
19 april, mon
mon1923:00+9e2589100 0.0 1022118
02:00+9ene268921 0.0 1023147
05:00+9ene2591100 0.0 1023144
08:00+10ene2688100 0.0 1023200
11:00+13e4669100 0.8 1023884
14:00+15ese465759 1.3 10221604
17:00+15e465694 0.3 10221800
20:00+11ene387085 0.3 1022208